Terug naar catalogus

STARLINK-36559

ActiefCommunicatieSSO
NORAD 67555·PAYLOAD·🇺🇸 United States

Gelanceerd Jan 22, 2026 vanaf Vandenberg Space Force Base

Loading…

Volgende Passages (komende 24 uur)

TLE

VersSource: CelesTrak SupGP

Epoch: Sep 15, 2026, 04:00 UTC

1 67555C 26014Z   26258.16715278  .00044849  00000+0  13904-2 0  2586
2 67555  97.2848 143.6192 0001638 105.0551 185.2925 15.33457914    14

Volg STARLINK-36559 in realtime met AllMySat

Download on the App Store